Regional Weather Roundup
Issued by NWS Charleston, SC

Current Version | Previous Version | Graphics & Text | Print | Product List | Glossary On
Versions: 1 2 3 4 5 6 7 8 9 10 11 12 13 14 15 16 17 18 19 20 21 22 23 24 25 26 27 28 29 30 31 32 33 34 35 36 37 38 39 40 41 42 43 44 45 46 47 48
000 ASUS42 KCHS 220310 RWRCHS REGIONAL WEATHER ROUNDUP NATIONAL WEATHER SERVICE CHARLESTON SC 1000 PM EST TUE FEB 21 2017 NOTE: "FAIR" INDICATES FEW OR NO CLOUDS BELOW 12,000 FEET WITH NO SIGNIFICANT WEATHER AND/OR OBSTRUCTIONS TO VISIBILITY. NOT ALL STATIONS ARE QUALITY CONTROLLED. USE DATA WITH CAUTION... ESPECIALLY DEWPOINT OBSERVATIONS. SCZ027-030-031-034>040-042>050-220400- ...SOUTHEAST SOUTH CAROLINA... CITY SKY/WX TMP DP RH WIND PRES REMARKS N CHARLESTON MOCLDY 60 57 89 E8 30.05F WATERFRONT PRK N/A 62 60 93 NE6 30.05F MOUNT PLEASANT MOCLDY 61 59 94 CALM 30.06F JOHNS ISLAND FAIR 61 59 94 NE3 30.05F PINOPOLIS N/A 59 57 94 E5 29.98F MONCKS CORNER FAIR 57 55 94 E3 30.07S SUMMERVILLE FAIR 59 55 88 CALM 30.07F BEAUFORT MCAS CLOUDY 64 61 90 E8 30.02F BEAUFORT ARPT FAIR 63 59 88 E6 30.03S HILTON HEAD IS CLOUDY 64 63 94 VRB6 30.03F WALTERBORO CLOUDY 61 57 88 E7 30.05F ALLENDALE MOCLDY 64 59 82 E3 30.02F ...SOUTHERN MIDLANDS AND PEE DEE... CITY SKY/WX TMP DP RH WIND PRES REMARKS GEORGETOWN FAIR 55 55 100 NE6 30.10F KINGSTREE FAIR 59 52 77 E6 30.09S ORANGEBURG CLOUDY 62 56 80 E6 30.05F BARNWELL CLOUDY 64 61 88 E6 30.03F AIKEN MOCLDY 59 55 88 E7 30.07S MANNING FAIR 59 46 63 MISG 30.07F COLUMBIA CLOUDY 64 55 72 E10 30.05F SUMTER CLOUDY 61 53 73 E6 30.05F FLORENCE CLOUDY 60 53 77 E9 30.09F MYRTLE BEACH PTCLDY 61 54 77 E12 30.12S N MYRTLE BEACH MOCLDY 60 54 80 E6 30.10S $$ GAZ063-065-086>088-099>101-113>116-118-119-134>141-150-220400- ...SOUTHEAST GEORGIA... CITY SKY/WX TMP DP RH WIND PRES REMARKS SAVANNAH ARPT CLOUDY 67 61 81 SE9 30.01S HUNTER AAF PTCLDY 67 65 94 E6 29.97F FORT STEWART LGT RAIN 65 63 91 SE7 29.97F STATESBORO RAIN 67 62 84 SE3 30.01S SYLVANIA CLOUDY N/A N/A N/A SE7 30.02S CLAXTON CLOUDY N/A N/A N/A E5 30.00S ...CSRA...CENTRAL AND FAR SOUTHEAST GEORGIA... CITY SKY/WX TMP DP RH WIND PRES REMARKS THOMSON CLOUDY 66 61 82 E7 30.05F AUGUSTA-BUSH MOCLDY 65 59 81 E6 30.01S AUGUSTA-DANIEL CLOUDY 65 56 72 E9 30.03S SWAINSBORO CLOUDY 66 61 82 E7 29.99F VIDALIA PTCLDY 66 64 94 E8 29.98F EASTMAN FAIR 67 52 59 SE5 29.98F HAZLEHURST FAIR 66 63 89 SE5 29.96F ALMA CLOUDY 66 61 84 SE6 29.97S WAYCROSS PTCLDY 69 66 89 SE7 29.97S JESUP FAIR 64 61 88 SE3 29.99S BAXLEY FAIR 64 64 100 SE3 29.97F BRUNSWICK PTCLDY 66 64 94 SE5 30.00S SAINT SIMONS PTCLDY 66 63 90 SE7 29.99S $$ SCZ027-028-034-036>038-045-046-048>050-GAZ119-141-220400- ...LAKE AND SUPPLEMENTAL COASTAL OBSERVATIONS... STATION/POSITION TIME TEMP WIND PRES WAVE SWELL AIR SEA DIR/SP/G HT/PER HT/PER/DIR (UTC) (F) (DEG/KT/KT) (MB) (FT/S) (FT/S/D) WINYAH BAY 0145 58 50/ 7 1019.0 LAKE MURRAY 0220 62 80/ 6/ 10 1017.3 ACE BASIN NERRS 0145 62 50/ 2 1017.0 FORT PULASKI 0248 67 61 130/ 12/ 16 1016.3F SAPELO ISLAND 0200 66 130/ 5 1016.0 $$ ANZ835-935-AMZ111-154-330-350-352-354-370-450-454-472-220400- ...C-MAN AND BUOY OBSERVATIONS... STATION/POSITION TIME TEMP WIND PRES WAVE SWELL AIR SEA DIR/SP/G HT/PER HT/PER/DIR (UTC) (F) (DEG/KT/KT) (MB) (FT/S) (FT/S/D) BUOY 41004 0150 70 69 120/ 16/ 17 1017.5 4/ 6 2/ 80/14 BUOY 41008 0150 66 62 110/ 10/ 10 1016.0 3/ 5 3/100/ 5 FOLLY BEACH CMAN 0200 61 30/ 9/ 10 1018.5F CAPERS NEARSHORE 0208 61 59 90/ 8/ 12 1018.1F FRIPP NEARSHORE 0208 63 61 110/ 10/ 12 1016.8F STATION/POSITION TIME TEMP WIND PRES WAVE SWELL AIR SEA DIR/SP/G HT/PER HT/PER/DIR (UTC) (F) (DEG/KT/KT) (MB) (FT/S) (FT/S/D) 5E ST. MARYS GA 0230 64 N/A 3/ 5 FRYING PAN BUOY 0250 68 68 110/ 16/ 19 1019.0S 4/ 8 2/ 90/ 8 BUOY 41025 0250 63 74 140/ 12/ 16 1021.3R 4/10 3/ 40/10 CAPE LOOKOUT NC 0200 62 110/ 9/ 9 1020.4F BUOY 41002 0250 64 71 80/ 12/ 16 1020.1F 5/ 8 3/ 30/ 8 BUOY 41010 NOT AVBL ST AUGUSTINE FL 0300 69 68 130/ 13/ 15 1015.6F $$

USA.gov is the U.S. government's official web portal to all federal, state and local government web resources and services.